Content
SEND FEEDBACK

Daily
Averages
Monthly
Summary
United States of America

TAMUNING, GUAM


Home > North America > United States > Guam
Elevation: 76 meters     Latitude: 13 29N     Longitude: 144 47E

WEATHER
 
SELECT A DAY
Number of Records: 341,964;   Date Range: 1/1/95 - 7/26/14
 
SHARE

PRINT THIS DATA

[ ← Previous Day ]
WEATHER ALMANAC - 9 JANUARY, 2013
[ Next Day → ]
[ °F ]   °C
Weather ElementAverageHighLow
Temperature24.2 °C29 °C (9:55 am)20 °C (3:01 am)
Dewpoint21.6 °C24 °C (5:11 am)19 °C (12:03 am)
Humidity85.5 %94 % (12:25 am)70 % (2:28 pm)
Barometer1008.5 hPa1010.2 hPa (8:55 am)1006.8 hPa (2:18 pm)
Wind Speed24 km/h40.7 km/h (12:05 am)
Wind Gust46.3 km/h (12:03 am)
Weather ElementAverage
Visibility15.1 km
Wind DirectionENE (71 °)

Weather ElementTotal
Precipitation1.78 mm
Cooling Degree Days6.2 (Base 18.3)
Growing Degree Days14.5 (Base 10)
Averaged from 113 records on 9 January, 2013
WEATHER CONDITIONS BREAKOUT
WIND DIRECTION BREAKOUT
WEATHER BY HOUR - 9 JANUARY, 2013
[ °F ]   °C
Local TimeTemperatureDewpointHumidityBarometerVisibilityWind DirectionWind SpeedGust SpeedPrecipitationEventsConditions
12:03 AM21 °C19 °C88 %1009.1 hPa12.9 kmNE (50°)37 km/h46.3 km/hDrizzle
12:05 AM21 °C19 °C88 %1009.1 hPa12.9 kmNE (50°)40.7 km/h46.3 km/hLight Drizzle
12:07 AM21 °C19 °C88 %1009.1 hPa12.9 kmNE (50°)37 km/h46.3 km/hLight Drizzle
12:09 AM21 °C19 °C88 %1009.1 hPa12.9 kmENE (60°)35.2 km/hOvercast
12:25 AM21 °C20 °C94 %1008.8 hPa16.1 kmNE (50°)25.9 km/hOvercast
12:27 AM21 °C20 °C94 %1008.8 hPa16.1 kmNE (50°)31.5 km/hOvercast
12:31 AM22 °C21 °C94 %1008.8 hPa16.1 kmNE (50°)31.5 km/hOvercast
12:34 AM22 °C21 °C94 %1008.8 hPa16.1 kmENE (60°)31.5 km/hOvercast
12:35 AM23 °C21 °C88 %1008.8 hPa16.1 kmNE (50°)33.3 km/h42.6 km/hOvercast
12:45 AM23 °C22 °C94 %1008.8 hPa16.1 kmENE (60°)27.8 km/hOvercast
12:55 AM21.7 °C20.4 °C92 %1008.8 hPa16.1 kmENE (60°)24.1 km/h0.25 mmOvercast
12:56 AM22 °C20 °C88 %1008.8 hPa16.1 kmENE (60°)25.9 km/hOvercast
1:07 AM21 °C20 °C94 %1008.8 hPa16.1 kmENE (60°)25.9 km/hMostly Cloudy
1:17 AM21 °C20 °C94 %1008.8 hPa16.1 kmNE (50°)25.9 km/hMostly Cloudy
1:21 AM21 °C20 °C94 %1008.8 hPa16.1 kmENE (60°)24.1 km/hMostly Cloudy
1:28 AM21 °C20 °C94 %1008.8 hPa16.1 kmENE (60°)25.9 km/hMostly Cloudy
1:40 AM21 °C20 °C94 %1008.5 hPa16.1 kmENE (60°)20.4 km/hMostly Cloudy
1:51 AM21 °C20 °C94 %1008.5 hPa16.1 kmENE (60°)22.2 km/h37 km/hMostly Cloudy
1:55 AM21 °C19.7 °C92 %1008.5 hPa16.1 kmENE (70°)25.9 km/hMostly Cloudy
1:58 AM21 °C20 °C94 %1008.5 hPa16.1 kmENE (60°)24.1 km/h33.3 km/hMostly Cloudy
2:03 AM21 °C20 °C94 %1008.1 hPa16.1 kmENE (60°)24.1 km/h33.3 km/hMostly Cloudy
2:06 AM21 °C20 °C94 %1008.1 hPa16.1 kmENE (60°)24.1 km/h33.3 km/hMostly Cloudy
2:09 AM21 °C20 °C94 %1008.1 hPa16.1 kmENE (60°)22.2 km/hMostly Cloudy
2:16 AM21 °C20 °C94 %1008.1 hPa16.1 kmENE (60°)24.1 km/h33.3 km/hMostly Cloudy
2:18 AM21 °C20 °C94 %1008.1 hPa16.1 kmENE (70°)22.2 km/h33.3 km/hMostly Cloudy
2:22 AM21 °C19 °C88 %1008.1 hPa16.1 kmENE (70°)22.2 km/hOvercast
2:53 AM21 °C19 °C88 %1007.8 hPa8 kmEast (100°)24.1 km/h38.9 km/hRainLight Rain
2:54 AM21 °C19 °C88 %1007.8 hPa6.4 kmEast (90°)20.4 km/h38.9 km/hRainLight Rain
2:55 AM20.8 °C19 °C89 %1007.8 hPa4.8 kmEast (100°)20.4 km/h38.9 km/h0.76 mmRainLight Rain
3:01 AM20 °C19 °C94 %1007.8 hPa4.8 kmEast (80°)14.8 km/hRainLight Rain
3:07 AM20 °C19 °C94 %1007.8 hPa16.1 kmENE (60°)18.5 km/hRainLight Rain
3:08 AM20 °C19 °C94 %1007.5 hPa16.1 kmENE (60°)22.2 km/hMostly Cloudy
3:23 AM21 °C20 °C94 %1007.5 hPa12.9 kmENE (70°)29.6 km/hRainLight Rain
3:32 AM20 °C19 °C94 %1007.5 hPa16.1 kmENE (70°)24.1 km/hMostly Cloudy
3:55 AM20.4 °C19.1 °C92 %1007.5 hPa16.1 kmEast (80°)22.2 km/h0.25 mmPartly Cloudy
4:28 AM21 °C19 °C88 %1007.5 hPa14.5 kmEast (90°)22.2 km/hMostly Cloudy
4:29 AM21 °C19 °C88 %1007.5 hPa9.7 kmEast (90°)24.1 km/hMostly Cloudy
4:30 AM21 °C19 °C88 %1007.5 hPa8 kmEast (80°)22.2 km/hRainLight Rain
4:31 AM21 °C19 °C88 %1007.8 hPa8 kmEast (80°)22.2 km/hRainRain
4:34 AM21 °C19 °C88 %1007.5 hPa8 kmEast (80°)24.1 km/hRainLight Rain
4:35 AM21 °C19 °C88 %1007.8 hPa8 kmEast (80°)24.1 km/hRainLight Rain
4:37 AM21 °C19 °C88 %1007.8 hPa8 kmEast (80°)22.2 km/hRainLight Rain
4:41 AM21 °C19 °C88 %1007.8 hPa16.1 kmENE (70°)18.5 km/hMostly Cloudy
4:55 AM21.7 °C20.4 °C92 %1007.8 hPa16.1 kmEast (80°)20.4 km/h0.51 mmMostly Cloudy
5:11 AM25 °C24 °C94 %1007.8 hPa16.1 kmENE (70°)22.2 km/hMostly Cloudy
5:22 AM24 °C23 °C94 %1008.1 hPa16.1 kmEast (80°)22.2 km/hMostly Cloudy
5:55 AM25.2 °C23.3 °C89 %1008.1 hPa16.1 kmEast (80°)25.9 km/hMostly Cloudy
6:00 AM25 °C23 °C89 %1008.1 hPa16.1 kmEast (80°)24.1 km/hMostly Cloudy
6:01 AM25 °C23 °C89 %1008.1 hPa16.1 kmENE (70°)24.1 km/hMostly Cloudy
6:13 AM25 °C23 °C89 %1008.5 hPa16.1 kmEast (80°)25.9 km/hScattered Clouds
6:55 AM24.8 °C23 °C90 %1008.8 hPa16.1 kmENE (70°)24.1 km/hClear
7:27 AM25 °C23 °C89 %1009.5 hPa16.1 kmEast (80°)25.9 km/hMostly Cloudy
7:36 AM26 °C23 °C83 %1009.5 hPa16.1 kmEast (80°)22.2 km/hMostly Cloudy
7:41 AM26 °C23 °C83 %1009.8 hPa16.1 kmEast (80°)24.1 km/hMostly Cloudy
7:46 AM25 °C23 °C89 %1009.8 hPa16.1 kmENE (70°)25.9 km/hMostly Cloudy
7:48 AM25 °C23 °C89 %1009.8 hPa16.1 kmEast (80°)25.9 km/hMostly Cloudy
7:49 AM26 °C23 °C83 %1009.8 hPa16.1 kmEast (80°)25.9 km/hMostly Cloudy
7:55 AM25.8 °C23.2 °C85 %1009.8 hPa16.1 kmEast (80°)27.8 km/hMostly Cloudy
7:57 AM26 °C23 °C83 %1009.8 hPa16.1 kmEast (80°)24.1 km/hMostly Cloudy
7:58 AM26 °C23 °C83 %1009.8 hPa16.1 kmEast (80°)27.8 km/hMostly Cloudy
8:00 AM26 °C23 °C83 %1009.8 hPa16.1 kmEast (80°)25.9 km/hMostly Cloudy
8:55 AM26 °C23 °C83 %1010.2 hPa16.1 kmEast (80°)25.9 km/hScattered Clouds
9:40 AM28 °C24 °C79 %1010.2 hPa16.1 kmENE (70°)24.1 km/h33.3 km/hMostly Cloudy
9:55 AM29 °C24 °C74 %1009.8 hPa16.1 kmEast (80°)22.2 km/hScattered Clouds
10:55 AM28.2 °C23.8 °C77 %1009.5 hPa16.1 kmENE (70°)27.8 km/hScattered Clouds
11:00 AM28 °C24 °C79 %1009.5 hPa16.1 kmENE (70°)25.9 km/hMostly Cloudy
11:02 AM28 °C24 °C79 %1009.1 hPa16.1 kmEast (80°)27.8 km/hScattered Clouds
11:03 AM28 °C24 °C79 %1009.1 hPa16.1 kmEast (80°)25.9 km/hMostly Cloudy
11:05 AM28 °C24 °C79 %1009.1 hPa16.1 kmEast (80°)25.9 km/hScattered Clouds
11:07 AM28 °C23 °C74 %1009.1 hPa16.1 kmENE (70°)29.6 km/hMostly Cloudy
11:42 AM28 °C23 °C74 %1008.5 hPa16.1 kmEast (80°)24.1 km/hScattered Clouds
11:55 AM28.2 °C23.1 °C74 %1008.1 hPa16.1 kmEast (80°)27.8 km/hScattered Clouds
11:56 AM28 °C23 °C74 %1008.5 hPa16.1 kmENE (70°)25.9 km/hMostly Cloudy
12:01 PM28 °C23 °C74 %1008.1 hPa16.1 kmENE (70°)24.1 km/hScattered Clouds
12:02 PM28 °C23 °C74 %1008.1 hPa16.1 kmENE (70°)22.2 km/hMostly Cloudy
12:21 PM28 °C23 °C74 %1007.8 hPa16.1 kmENE (70°)25.9 km/hScattered Clouds
12:55 PM28 °C22.5 °C72 %1007.5 hPa16.1 kmENE (70°)24.1 km/hPartly Cloudy
1:19 PM25 °C21 °C78 %1007.5 hPa16.1 kmENE (70°)27.8 km/hMostly Cloudy
1:30 PM25 °C20 °C74 %1007.5 hPa16.1 kmENE (70°)24.1 km/hMostly Cloudy
1:55 PM25.4 °C20.4 °C74 %1007.1 hPa16.1 kmENE (70°)25.9 km/hPartly Cloudy
2:18 PM25 °C21 °C78 %1006.8 hPa16.1 kmENE (70°)25.9 km/hMostly Cloudy
2:20 PM24 °C19 °C73 %1006.8 hPa16.1 kmEast (80°)25.9 km/hScattered Clouds
2:21 PM24 °C19 °C73 %1006.8 hPa16.1 kmEast (80°)24.1 km/h33.3 km/hMostly Cloudy
2:28 PM29 °C23 °C70 %1006.8 hPa16.1 kmENE (70°)25.9 km/hMostly Cloudy
2:55 PM28.7 °C23.1 °C72 %1006.8 hPa16.1 kmENE (70°)29.6 km/hPartly Cloudy
3:55 PM27.9 °C23.6 °C77 %1006.8 hPa16.1 kmENE (70°)20.4 km/hScattered Clouds
4:55 PM24 °C19.8 °C77 %1007.5 hPa16.1 kmENE (60°)24.1 km/hScattered Clouds
5:55 PM26.6 °C23 °C80 %1007.5 hPa16.1 kmEast (80°)24.1 km/hScattered Clouds
6:55 PM25.9 °C22.6 °C82 %1008.1 hPa16.1 kmEast (80°)18.5 km/hPartly Cloudy
7:21 PM26 °C23 °C83 %1008.5 hPa16.1 kmENE (60°)18.5 km/hMostly Cloudy
7:23 PM26 °C23 °C83 %1008.5 hPa16.1 kmENE (70°)18.5 km/hRainLight Rain
7:33 PM26 °C23 °C83 %1008.5 hPa16.1 kmENE (60°)16.7 km/hMostly Cloudy
7:43 PM26 °C23 °C83 %1008.5 hPa16.1 kmENE (60°)18.5 km/hMostly Cloudy
7:47 PM26 °C23 °C83 %1008.8 hPa16.1 kmENE (60°)20.4 km/hScattered Clouds
7:55 PM25.6 °C22.8 °C84 %1008.8 hPa16.1 kmENE (60°)20.4 km/h0 mmScattered Clouds
8:47 PM25 °C23 °C89 %1008.8 hPa16.1 kmENE (70°)16.7 km/hMostly Cloudy
8:53 PM24 °C22 °C89 %1008.8 hPa16.1 kmENE (70°)18.5 km/hMostly Cloudy
8:54 PM24 °C21 °C83 %1008.8 hPa16.1 kmENE (70°)16.7 km/hMostly Cloudy
8:55 PM24.1 °C21.4 °C85 %1008.8 hPa16.1 kmENE (70°)16.7 km/hMostly Cloudy
9:27 PM24 °C22 °C89 %1008.8 hPa16.1 kmENE (60°)18.5 km/hMostly Cloudy
9:43 PM25 °C23 °C89 %1008.8 hPa16.1 kmEast (80°)16.7 km/hMostly Cloudy
9:45 PM26 °C23 °C83 %1008.8 hPa16.1 kmENE (70°)16.7 km/hMostly Cloudy
9:47 PM26 °C24 °C89 %1008.8 hPa16.1 kmENE (70°)20.4 km/hMostly Cloudy
9:55 PM25.8 °C23.2 °C85 %1008.8 hPa16.1 kmENE (60°)20.4 km/hMostly Cloudy
10:41 PM26 °C23 °C83 %1008.8 hPa16.1 kmENE (70°)20.4 km/hScattered Clouds
10:55 PM25.7 °C22.7 °C83 %1008.8 hPa16.1 kmENE (70°)22.2 km/hScattered Clouds
11:15 PM26 °C23 °C83 %1008.8 hPa16.1 kmEast (80°)24.1 km/hMostly Cloudy
11:23 PM26 °C23 °C83 %1008.8 hPa16.1 kmEast (80°)20.4 km/hScattered Clouds
11:26 PM26 °C23 °C83 %1008.8 hPa16.1 kmEast (80°)16.7 km/hMostly Cloudy
11:46 PM26 °C23 °C83 %1008.8 hPa16.1 kmEast (80°)22.2 km/hScattered Clouds
11:49 PM26 °C23 °C83 %1008.8 hPa16.1 kmEast (80°)22.2 km/hMostly Cloudy
11:55 PM25.8 °C22.7 °C83 %1008.8 hPa16.1 kmEast (80°)20.4 km/hMostly Cloudy
11:59 PM26 °C23 °C83 %1008.8 hPa16.1 kmEast (80°)20.4 km/hScattered Clouds
Hourly data recorded from PGUA, located 0 kilometers away from Tamuning, Guam







STORIES FROM OUR PARTNERS